Location: Elliott Corner
(37.4627°N, 119.7746°W)
Time: 20:35:44
(UTC+00:00)

Cosmos 2058 Rocket - Pass Details

Date: 10 September 2024
Orbit: 607 x 634 km, 82.5° (Epoch: 11 October)

Event Time Altitude Azimuth Distance (km) Brightness Sun altitude
Rises 12:25:29 0° 170° (S) 2,877 6.4 -14.8°
Reaches altitude 10° 12:27:46 10° 164° (SSE) 1,981 5.6 -14.3°
Maximum altitude 12:31:56 44° 92° (E) 874 4.4 -13.6°
Drops below altitude 10° 12:36:09 10° 21° (NNE) 2,012 6.2 -12.8°
Sets 12:38:29 0° 15° (NNE) 2,928 7.0 -12.3°
